Location: Austin
(30.3000°N, 97.7500°W)
Time: 23:41:40
(UTC-05:00)

ATLAS CENTAUR R/B - Pass Details

Date: 05 September 2024
Orbit: 197 x 1794 km, 57.1° (Epoch: 14 September)

Event Time Altitude Azimuth Distance (km) Brightness Sun altitude
Rises 22:19:26 0° 321° (NW) 3,386 6.8 -31.7°
Reaches altitude 10° 22:21:30 10° 321° (NW) 2,657 6.0 -32.0°
Maximum altitude 22:28:04 82° 235° (SW) 1,278 3.4 -33.3°
Enters shadow 22:28:18 81° 205° (SSW) 1,293 3.4 -33.3°
